Weather in Egilsstaðir

Iceland     65°16′27″N   14°24′13″W
В апреле 2022 года жителям России запретили посещать сайт meteo.paraplan.net по решению Генеральной прокуратуры. Аудитория сайта уменьшилась в 10 раз. Владельцы сайта не видят смысла в поддержке погодного сервера в таких условиях. Сайт будет закрыт в октябре.
temp.,
°C
wind,
m/s
gust,
m/s
humid.,
%
clouds,
%
prec.,
mm/h
press.,
hPa
HPBL,
m
4 october, tue
tue400:00+6ne4597100 1.1 989238
03:00+5ne51094100 3.1 982957
06:00+5ne6996100 8.9 972617
09:00+5ne3499100 5.3 966210
12:00+6nne459899 5.6 961277
15:00+7w2483100 0.3 958709
18:00+4sw6894100 0.6 959648
21:00+3sw4897100 1.8 960661
5 october, wed
wed500:00+3wsw41097100 4.1 963744
03:00+3w61397100 0.8 965932
06:00+3w71282100 1.1 9681160
09:00+3wsw61280100 0.1 970976
12:00+4wsw81665100 0.1 9711535
15:00+4w9166288 0.0 9751517
18:00+3w8156649 0.0 9781255
21:00+1sw477882 0.0 981193
6 october, thu
thu600:00+1sw597516 0.0 981262
03:00+1sw47767 0.0 982121
06:00+1sw4675100 0.0 98293
09:00+2sw467286 0.0 983187
12:00+4sw465966 0.0 983685
15:00+5sw455716 0.0 9821003
18:00+2wsw347384 0.0 98364
21:00+1ssw347694 0.0 984106
7 october, fri
fri700:000sw358799 0.1 985268
03:000wsw51091100 0.9 985649
06:00+1wnw71397100 2.0 986885
09:00+1nw81498100 2.9 988924
12:00+1nw51298100 4.0 992816
15:00+1nw41098100 1.2 995635
18:00+1wnw489398 1.6 998609
21:000w359397 0.4 1000304
8 october, sat
sat800:00−1wsw229243 0.4 100118
03:00−3ssw119257 0.0 100111
06:00−3sse229294 0.0 100119
09:00−1sse228391 0.0 99971
12:00+1ese228684 0.0 997240
15:00+2e2295100 0.0 995248
18:00+1ene23100100 0.8 992156
21:00+2ne22100100 1.3 989176